TimeCST,TemperatureF,Dew PointF,Humidity,Sea Level PressureIn,VisibilityMPH,Wind Direction,Wind SpeedMPH,Gust SpeedMPH,PrecipitationIn,Events,Conditions,WindDirDegrees,DateUTC
12:12 AM,-17.0,-21.1,81,30.58,10.0,WSW,4.6,-,N/A,,Clear,250,2013-12-07 06:12:00
12:33 AM,-16.8,-21.1,81,30.58,10.0,West,6.9,-,N/A,,Clear,260,2013-12-07 06:33:00
12:53 AM,-16.8,-21.5,79,30.58,10.0,West,6.9,-,N/A,,Clear,270,2013-12-07 06:53:00
1:13 AM,-17.1,-22.0,79,30.57,10.0,West,5.8,-,N/A,,Clear,270,2013-12-07 07:13:00
1:33 AM,-16.6,-21.3,79,30.58,10.0,West,5.8,-,N/A,,Clear,270,2013-12-07 07:33:00
1:52 AM,-16.8,-21.5,79,30.58,10.0,West,8.1,-,N/A,,Clear,270,2013-12-07 07:52:00
2:13 AM,-17.5,-22.2,79,30.59,10.0,West,6.9,-,N/A,,Clear,270,2013-12-07 08:13:00
2:33 AM,-16.6,-21.3,79,30.58,10.0,West,5.8,-,N/A,,Clear,270,2013-12-07 08:33:00
2:53 AM,-17.0,-21.6,79,30.59,10.0,West,5.8,-,N/A,,Clear,280,2013-12-07 08:53:00
3:13 AM,-17.0,-21.6,79,30.59,10.0,West,3.5,-,N/A,,Clear,280,2013-12-07 09:13:00
3:33 AM,-17.5,-22.2,79,30.58,10.0,WNW,3.5,-,N/A,,Clear,290,2013-12-07 09:33:00
3:53 AM,-18.6,-23.3,79,30.59,10.0,WSW,5.8,-,N/A,,Clear,250,2013-12-07 09:53:00
4:13 AM,-18.8,-23.1,81,30.59,10.0,West,5.8,-,N/A,,Clear,270,2013-12-07 10:13:00
4:33 AM,-18.4,-22.9,80,30.59,10.0,West,5.8,-,N/A,,Clear,260,2013-12-07 10:33:00
4:52 AM,-18.4,-22.9,80,30.59,10.0,West,5.8,-,N/A,,Clear,260,2013-12-07 10:52:00
5:13 AM,-18.2,-22.7,80,30.59,10.0,West,5.8,-,N/A,,Clear,270,2013-12-07 11:13:00
5:33 AM,-18.4,-22.9,80,30.59,10.0,West,4.6,-,N/A,,Clear,270,2013-12-07 11:33:00
5:52 AM,-18.8,-23.3,80,30.58,10.0,West,5.8,-,N/A,,Clear,280,2013-12-07 11:52:00
6:13 AM,-19.5,-24.2,79,30.58,10.0,WSW,4.6,-,N/A,,Clear,250,2013-12-07 12:13:00
6:33 AM,-18.8,-23.1,81,30.58,10.0,WSW,4.6,-,N/A,,Clear,250,2013-12-07 12:33:00
6:52 AM,-19.3,-24.2,78,30.59,10.0,SW,3.5,-,N/A,,Clear,230,2013-12-07 12:52:00
7:13 AM,-19.3,-23.8,80,30.59,10.0,WSW,3.5,-,N/A,,Clear,240,2013-12-07 13:13:00
7:33 AM,-19.3,-24.2,78,30.60,10.0,SW,5.8,-,N/A,,Clear,230,2013-12-07 13:33:00
7:52 AM,-19.3,-24.0,79,30.59,10.0,SW,5.8,-,N/A,,Clear,230,2013-12-07 13:52:00
8:13 AM,-17.7,-22.4,79,30.60,10.0,SW,4.6,-,N/A,,Clear,230,2013-12-07 14:13:00
8:33 AM,-17.1,-22.0,79,30.60,10.0,SW,3.5,-,N/A,,Clear,230,2013-12-07 14:33:00
8:52 AM,-15.5,-20.2,79,30.61,10.0,SW,5.8,-,N/A,,Clear,230,2013-12-07 14:52:00
9:13 AM,-13.4,-18.4,78,30.61,10.0,WSW,6.9,-,N/A,,Clear,250,2013-12-07 15:13:00
9:33 AM,-13.0,-18.2,77,30.61,10.0,WSW,9.2,-,N/A,,Clear,250,2013-12-07 15:33:00
9:52 AM,-11.6,-16.8,78,30.61,10.0,WSW,9.2,-,N/A,,Clear,250,2013-12-07 15:52:00
10:13 AM,-10.8,-16.4,76,30.62,10.0,WSW,9.2,-,N/A,,Clear,250,2013-12-07 16:13:00
10:32 AM,-9.9,-15.7,76,30.62,10.0,WSW,8.1,-,N/A,,Clear,250,2013-12-07 16:32:00
10:53 AM,-8.7,-15.3,73,30.62,10.0,West,11.5,-,N/A,,Clear,260,2013-12-07 16:53:00
11:13 AM,-7.8,-14.8,71,30.61,10.0,WSW,10.4,-,N/A,,Clear,250,2013-12-07 17:13:00
11:32 AM,-7.2,-14.8,70,30.62,10.0,WSW,9.2,-,N/A,,Clear,250,2013-12-07 17:32:00
11:53 AM,-6.5,-13.9,70,30.61,10.0,WSW,10.4,-,N/A,,Clear,240,2013-12-07 17:53:00
12:12 PM,-5.8,-13.5,69,30.60,10.0,West,13.8,-,N/A,,Clear,260,2013-12-07 18:12:00
12:33 PM,-5.3,-13.7,67,30.59,10.0,WSW,12.7,-,N/A,,Clear,250,2013-12-07 18:33:00
12:53 PM,-4.9,-13.0,68,30.59,10.0,West,10.4,-,N/A,,Clear,260,2013-12-07 18:53:00
1:12 PM,-4.7,-13.0,68,30.59,10.0,WSW,10.4,-,N/A,,Clear,250,2013-12-07 19:12:00
1:33 PM,-4.2,-12.8,66,30.59,10.0,West,11.5,-,N/A,,Clear,260,2013-12-07 19:33:00
1:53 PM,-3.6,-12.1,67,30.58,10.0,WSW,11.5,-,N/A,,Clear,240,2013-12-07 19:53:00
2:12 PM,-2.9,-11.9,65,30.58,10.0,WSW,9.2,-,N/A,,Scattered Clouds,250,2013-12-07 20:12:00
2:33 PM,-3.6,-12.3,67,30.56,10.0,West,10.4,-,N/A,,Scattered Clouds,260,2013-12-07 20:33:00
2:52 PM,-4.0,-12.3,68,30.56,10.0,WSW,9.2,-,N/A,,Clear,250,2013-12-07 20:52:00
3:13 PM,-4.0,-12.3,68,30.56,10.0,West,9.2,-,N/A,,Mostly Cloudy,260,2013-12-07 21:13:00
3:33 PM,-4.2,-11.7,70,30.55,10.0,West,8.1,-,N/A,,Overcast,260,2013-12-07 21:33:00
3:52 PM,-4.9,-12.3,71,30.55,10.0,West,6.9,-,N/A,,Mostly Cloudy,260,2013-12-07 21:52:00
4:13 PM,-5.3,-12.3,72,30.55,10.0,WSW,4.6,-,N/A,,Scattered Clouds,250,2013-12-07 22:13:00
4:33 PM,-6.5,-13.0,73,30.55,10.0,WSW,3.5,-,N/A,,Clear,250,2013-12-07 22:33:00
4:52 PM,-7.6,-13.4,76,30.54,10.0,West,4.6,-,N/A,,Clear,270,2013-12-07 22:52:00
5:13 PM,-8.5,-13.9,77,30.53,10.0,Calm,Calm,-,N/A,,Clear,0,2013-12-07 23:13:00
5:33 PM,-9.2,-14.3,79,30.54,10.0,Calm,Calm,-,N/A,,Clear,0,2013-12-07 23:33:00
5:52 PM,-9.4,-14.3,79,30.54,10.0,Calm,Calm,-,N/A,,Clear,0,2013-12-07 23:52:00
6:13 PM,-10.3,-14.1,83,30.53,10.0,Calm,Calm,-,N/A,,Clear,0,2013-12-08 00:13:00
6:33 PM,-11.4,-15.5,82,30.53,10.0,Calm,Calm,-,N/A,,Clear,0,2013-12-08 00:33:00
6:52 PM,-12.1,-15.9,83,30.52,10.0,Calm,Calm,-,N/A,,Clear,0,2013-12-08 00:52:00
7:13 PM,-13.5,-17.7,82,30.52,10.0,Calm,Calm,-,N/A,,Clear,0,2013-12-08 01:13:00
7:33 PM,-14.3,-18.2,82,30.52,10.0,Calm,Calm,-,N/A,,Clear,0,2013-12-08 01:33:00
7:52 PM,-13.4,-17.1,83,30.51,10.0,Calm,Calm,-,N/A,,Clear,0,2013-12-08 01:52:00
8:13 PM,-14.3,-18.0,83,30.51,10.0,Calm,Calm,-,N/A,,Clear,0,2013-12-08 02:13:00
8:33 PM,-14.3,-18.4,82,30.50,10.0,Calm,Calm,-,N/A,,Clear,0,2013-12-08 02:33:00
8:52 PM,-15.3,-19.3,82,30.50,10.0,Calm,Calm,-,N/A,,Clear,0,2013-12-08 02:52:00
9:13 PM,-17.9,-21.8,82,30.49,10.0,Calm,Calm,-,N/A,,Clear,0,2013-12-08 03:13:00
9:33 PM,-17.0,-21.1,81,30.49,10.0,Calm,Calm,-,N/A,,Clear,0,2013-12-08 03:33:00
9:53 PM,-16.4,-20.6,81,30.50,10.0,Calm,Calm,-,N/A,,Clear,0,2013-12-08 03:53:00
10:13 PM,-17.1,-21.5,81,30.49,10.0,Calm,Calm,-,N/A,,Clear,0,2013-12-08 04:13:00
10:33 PM,-17.1,-21.1,82,30.49,10.0,Calm,Calm,-,N/A,,Clear,0,2013-12-08 04:33:00
10:53 PM,-17.7,-21.6,82,30.48,10.0,Calm,Calm,-,N/A,,Clear,0,2013-12-08 04:53:00
11:13 PM,-17.5,-21.3,83,30.48,10.0,Calm,Calm,-,N/A,,Clear,0,2013-12-08 05:13:00
11:33 PM,-19.3,-23.8,80,30.48,10.0,Calm,Calm,-,N/A,,Clear,0,2013-12-08 05:33:00
11:53 PM,-17.5,-21.5,82,30.48,10.0,Calm,Calm,-,N/A,,Clear,0,2013-12-08 05:53:00